Aeroporto :
LOGIN :

Iscrizione | Disclaimer

   EN    FR    IT 

 










Sommario :    VFR   VFR Marginale   IFR   IFR Intensivo   IFR Molto Intensivo
Visibilità : 
Base nubi : 
>= 8 km
>= 3000ft
5 / 8 km
1000 / 3000 ft
1500m / 5 km
500 / 1000 ft
800 / 1500m
200 / 500 ft
< 800m
< 200 ft
Simboli :   Temporali  Nebbia  Neve Forte  Precipitazioni Forti  Vento > 20 kt
SIGMETs :   Varie  Temporali  Ghiacco  Turbolenza  Onda orograficha  Ceneri Vulcaniche






- Altitudine del aeroporto : 49 ft
- Codice IATA : SEN


EGMC - Southend

ULTIMO METAR :
  • 031350Z 22020KT 9999 FEW043 21/11 Q1015

METARs OBSOLETI :
  • 031320Z 23019KT 9999 FEW040 21/11 Q1015
  • 031250Z 23020KT 9999 FEW040 21/11 Q1015
  • 031220Z 23019KT 9999 FEW041 21/10 Q1015
  • 031150Z 23017KT 9999 FEW041 21/10 Q1015
  • 031120Z 22019KT 9999 FEW038 19/10 Q1015

TAF TAF EGMC
Valido dal 03 a 09 ore il 03 a 18 ore UTC


030759Z 0309/0318 23008KT 9999 FEW040
BECMG 0309/0311 23016G28KT



MetMap, La meteo Aeronautica in un colpo d'occhio ! - Copyright ORBIFLY Dicembre 2007 - Disclaimer

ORBIFLY MET'MAP TEAM :

Programmazione e sviluppo : Alexandra Zaïnal
Concezione : Baudouin d'Aumeries
Aiuto per la programmazione : Marc-Olivier Méhu
Supporto tecnico e logistico : Manuel Goepfert
Aiuto per la traduzione : Arnaldo La Scala

Contatto : metmap@orbifly.com




FONTI E CREDITI :

   NOAA